Home   Weather   Mosbach   Past weeks

Flag for Germany Past Weather in Mosbach, Baden-Württemberg, Germany — Yesterday and Last 2 Weeks

Now
27 °F

Ice fog.


Feels Like: 21 °F
Forecast: 24 / 38 °F
Wind: 5 mph from East

Location: Niederstetten

Current Time: Dec 3, 2016 at 5:51:58 am

Latest Report: Dec 3, 2016 at 4:20 am


Visibility: 0 mi

Pressure: 30.18 "Hg

Humidity: 93%

Dew Point: 25 °F

Location of MosbachLocation

Past Weather in Mosbach — Graph

°F

Mosbach Temperature Yesterday

Maximum temperature yesterday: 39 °F (at 2:20 pm)
Minimum temperature yesterday: 30 °F (at 10:20 pm)
Average temperature yesterday: 35 °F

High & Low Weather Summary for the Past Weeks

 TemperatureHumidityPressure
High57 °F (Nov 18, 10:20 am)100% (Nov 19, 9:20 pm)30.48 "Hg (Nov 19, 9:20 pm)
Low21 °F (Nov 29, 4:20 am)51% (Nov 20, 2:20 pm)29.56 "Hg (Nov 18, 10:20 am)
Average39 °F83%30.05 "Hg
* Reported Nov 18 4:20 am — Dec 3 4:20 am, Mosbach, Weather by CustomWeather, © 2016

Note: Actual official high and low records may vary slightly from our data, if they occured in-between our weather recording intervals... More about our weather records

Advertising

Mosbach Weather History for the Previous 24 Hours

Scroll right to see more
 ConditionsComfort  
Time TempWeatherWind HumidityBarometerVisibility
4:20 am
Sat, Dec 3
27 °FIce fog.5 mph93%30.18 "Hg0 mi
3:20 am27 °FIce fog.5 mph93%30.18 "Hg0 mi
2:20 am28 °FIce fog.5 mph93%30.18 "Hg0 mi
1:20 am28 °FIce fog.5 mph100%30.18 "Hg0 mi
12:20 am30 °FIce fog.2 mph93%30.18 "Hg0 mi
11:20 pm
Fri, Dec 2
32 °FIce fog.6 mph93%30.15 "Hg0 mi
10:50 pm30 °FIce fog.3 mph100%30.15 "Hg1 mi
10:20 pm30 °FPassing clouds.3 mph100%30.15 "HgN/A
9:20 pm32 °FPassing clouds.2 mph100%30.15 "HgN/A
8:20 pm34 °FPassing clouds.3 mph93%30.15 "HgN/A
7:20 pm34 °FLight rain. Partly cloudy.3 mph100%30.15 "HgN/A
6:20 pm36 °FPartly cloudy.3 mph93%30.15 "HgN/A
5:20 pm36 °FPassing clouds.2 mph93%30.15 "HgN/A
4:20 pm36 °FDrizzle. Fog.5 mph100%30.15 "Hg3 mi
3:45 pm37 °FDrizzle. Fog.6 mph93%30.15 "Hg2 mi
3:20 pm37 °FDrizzle. Fog.5 mph100%30.12 "Hg1 mi
3:02 pm39 °FDrizzle. Fog.5 mph93%30.12 "Hg2 mi
2:20 pm39 °FDrizzle. Low clouds.6 mph93%30.12 "Hg4 mi
1:20 pm37 °FDrizzle. Low clouds.9 mph93%30.12 "Hg4 mi
12:20 pm37 °FFog.9 mph93%30.12 "Hg3 mi
12:00 pm37 °FFog.12 mph93%30.12 "Hg3 mi
11:20 am37 °FLight rain. Fog.10 mph93%30.15 "Hg2 mi
10:20 am36 °FFog.13 mph100%30.15 "Hg2 mi
9:20 am36 °FFog.12 mph93%30.15 "Hg1 mi
8:20 am36 °FFog.10 mph93%30.12 "Hg1 mi
8:01 am36 °FFog.14 mph93%30.12 "Hg1 mi
7:20 am36 °FFog.13 mph93%30.12 "Hg2 mi
6:48 am36 °FDrizzle. Fog.13 mph93%30.12 "Hg2 mi
6:20 am36 °FDrizzle. Fog.14 mph93%30.12 "Hg2 mi
5:20 am36 °FDrizzle. Mostly cloudy.9 mph93%30.12 "Hg4 mi
Weather by CustomWeather, © 2016

See weather overviewHow to use our weather pages